Home   Weather   Hefei   Past weeks

Flag for China Past Weather in Hefei, Anhui, China — Yesterday and Last 2 Weeks

Now
59 °F

Fog.


Feels Like: 58 °F
Forecast: 58 / 68 °F
Wind: 8 mph from Northeast

Location: Hefei Airport

Current Time: Apr 26, 2017 at 4:28:28 am

Latest Report: Apr 26, 2017 at 3:00 am


Visibility: 3 mi

Pressure: 30.01 "Hg

Humidity: 88%

Dew Point: 55 °F

Location of HefeiLocation

Past Weather in Hefei — Graph

°F

Hefei Temperature Yesterday

Maximum temperature yesterday: 72 °F (at 12:00 am)
Minimum temperature yesterday: 63 °F (at 6:00 am)
Average temperature yesterday: 67 °F

High & Low Weather Summary for the Past Weeks

 TemperatureHumidityPressure
High86 °F (Apr 15, 2:00 pm)100% (Apr 11, 3:00 am)30.15 "Hg (Apr 11, 3:00 am)
Low46 °F (Apr 11, 3:00 am)25% (Apr 24, 1:00 pm)29.59 "Hg (Apr 18, 3:00 am)
Average67 °F64%29.89 "Hg
* Reported Apr 11 3:00 am — Apr 26 3:00 am, Hefei, Weather by CustomWeather, © 2017

Note: Actual official high and low records may vary slightly from our data, if they occured in-between our weather recording intervals... More about our weather records

Advertising

Hefei Weather History for the Previous 24 Hours

Scroll right to see more
 ConditionsComfort  
Time TempWeatherWind HumidityBarometerVisibility
3:00 am
Wed, Apr 26
59 °FFog.8 mph88%30.01 "Hg3 mi
2:00 am61 °FFog.8 mph94%30.01 "Hg2 mi
1:00 am63 °FFog.8 mph94%29.98 "Hg1 mi
12:00 am63 °FFog.6 mph94%29.98 "Hg1 mi
11:00 pm
Tue, Apr 25
63 °FFog.6 mph94%29.98 "Hg2 mi
10:00 pm63 °FFog.3 mph94%30.01 "Hg3 mi
9:00 pm63 °FLight rain. Fog.3 mph94%30.01 "Hg3 mi
8:00 pm63 °FLight rain. Passing clouds.8 mph94%29.98 "Hg4 mi
7:00 pm63 °FLight rain. Passing clouds.6 mph94%29.95 "HgN/A
6:00 pm63 °FLight rain. Clear.8 mph94%29.95 "HgN/A
5:00 pm64 °FLight rain. Clear.6 mph88%29.92 "HgN/A
4:00 pm68 °FLight rain. Fog.3 mph83%29.92 "Hg3 mi
3:00 pm68 °FLight rain. Fog.6 mph83%29.92 "Hg2 mi
2:00 pm68 °FLight rain. Fog.8 mph83%29.89 "Hg2 mi
1:00 pm70 °FFog.6 mph73%29.89 "Hg2 mi
12:00 pm72 °FHaze.6 mph73%29.92 "Hg2 mi
11:00 am72 °FHaze.3 mph69%29.92 "Hg3 mi
10:00 am72 °FHaze.3 mph65%29.92 "Hg3 mi
9:00 am70 °FHaze.6 mph69%29.89 "Hg3 mi
8:00 am68 °FFog.3 mph73%29.89 "Hg3 mi
7:00 am64 °FFog.1 mph83%29.89 "Hg3 mi
6:00 am63 °FSunny.1 mph88%29.86 "Hg10 mi
5:00 am64 °FPassing clouds.3 mph78%29.86 "HgN/A
4:00 am66 °FClear.3 mph68%29.86 "Hg10 mi
Weather by CustomWeather, © 2017

See weather overviewHow to use our weather pages